Location: Vancouver
(49.2500°N, 123.1330°W)
Time: 23:39:39
(UTC-08:00)

Vanguard 2 Rocket - Visible Passes

Search period start: 25 February 2017 00:00
Search period end: 07 March 2017 00:00
Orbit: 553 x 3329 km, 32.9° (Epoch: 25 February)

Date Brightness Start Highest point End Pass type
(mag) Time Alt. Az. Time Alt. Az. Time Alt. Az.
01 Mar 11.3 05:59:17 10° SSE 06:06:28 13° SE 06:13:46 10° ESE visible
03 Mar 11.1 06:08:04 10° S 06:19:28 20° SE 06:31:31 10° E visible
04 Mar 11.1 05:12:40 10° SSE 05:19:26 13° SE 05:26:36 10° ESE visible
06 Mar 10.8 05:21:51 10° S 05:32:20 19° SE 05:44:11 10° E visible
